This is the latest recevied weather packets stored in our database for station/object M0ADS. If no packets are shown the sender has not sent any weather packets the latest 10 day(s).
| Time | Temp. | Humidity | Pressure | Rain* | Wind** | Luminosity | Snow |
|---|---|---|---|---|---|---|---|
| 1777041795 | 19.44° C | 31% | 1023.9 hPa | 0 mm | - | - | - |
| 1777040895 | 18.89° C | 31% | 1024.1 hPa | 0 mm | - | - | - |
| 1777039996 | 18.89° C | 31% | 1024.3 hPa | 0 mm | - | - | - |
| 1777039093 | 18.89° C | 29% | 1024.6 hPa | 0 mm | - | - | - |
| 1777038193 | 18.33° C | 30% | 1024.8 hPa | 0 mm | - | - | - |
| 1777037293 | 18.33° C | 32% | 1025 hPa | 0 mm | - | - | - |
| 1777036391 | 17.78° C | 34% | 1025.2 hPa | 0 mm | - | - | - |
| 1777035489 | 17.78° C | 35% | 1025.3 hPa | 0 mm | - | - | - |
| 1777034587 | 17.78° C | 35% | 1025.5 hPa | 0 mm | - | - | - |
| 1777033687 | 17.78° C | 33% | 1025.7 hPa | 0 mm | - | - | - |
| 1777032787 | 17.22° C | 34% | 1025.8 hPa | 0 mm | - | - | - |
| 1777031885 | 17.22° C | 32% | 1026 hPa | 0 mm | - | - | - |
| 1777030984 | 16.67° C | 34% | 1026.1 hPa | 0 mm | - | - | - |
| 1777030085 | 16.67° C | 37% | 1026.3 hPa | 0 mm | - | - | - |
| 1777029185 | 16.11° C | 37% | 1026.4 hPa | 0 mm | - | - | - |
| 1777028285 | 16.11° C | 39% | 1026.5 hPa | 0 mm | - | - | - |
| 1777027385 | 16.11° C | 42% | 1026.6 hPa | 0 mm | - | - | - |
| 1777026485 | 14.44° C | 47% | 1026.9 hPa | 0 mm | - | - | - |
| 1777025585 | 13.89° C | 49% | 1027 hPa | 0 mm | - | - | - |
| 1777024683 | 13.33° C | 44% | 1027.1 hPa | 0 mm | - | - | - |
| 1777023782 | 12.78° C | 57% | 1027.2 hPa | 0 mm | - | - | - |
| 1777022880 | 12.22° C | 61% | 1027.2 hPa | 0 mm | - | - | - |
| 1777021981 | 11.67° C | 67% | 1027.3 hPa | 0 mm | - | - | - |
| 1777021080 | 11.67° C | 67% | 1027.3 hPa | 0 mm | - | - | - |
| 1777020178 | 10.56° C | 70% | 1027.3 hPa | 0 mm | - | - | - |
* Rain latest hour (hover to see other rain measurements)
** Current wind speed in m/s (hover to see current wind gust speed)